Location: Saratoga Springs
(43.0831°N, 73.7850°W)
Time: 15:09:49
(UTC-04:00)

Vanguard 2 Rocket - Pass Details

Date: 21 April 2024
Orbit: 556 x 3304 km, 32.9° (Epoch: 20 May)

Event Time Altitude Azimuth Distance (km) Brightness Sun altitude
Rises 20:45:59 0° 218° (SW) 5,583 11.1 -11.0°
Reaches altitude 10° 20:49:31 10° 211° (SSW) 4,917 10.7 -11.5°
Maximum altitude 21:03:19 41° 148° (SSE) 3,904 9.6 -13.7°
Drops below altitude 10° 21:20:59 10° 88° (E) 6,250 10.7 -16.4°
Sets 21:26:09 0° 82° (E) 7,185 11.1 -17.1°
